Location: Burera
(21.3780°N, 81.9534°E)
Time: 00:48:43
(UTC+00:00)

CZ-2C R/B - Pass Details

Date: 13 August 2020
Orbit: 639 x 705 km, 98.4° (Epoch: 22 September)

Event Time Altitude Azimuth Distance (km) Brightness Sun altitude
Rises 14:34:25 0° 11° (N) 2,988 7.3 -20.6°
Reaches altitude 10° 14:36:39 10° 11° (N) 2,065 6.4 -21.1°
Maximum altitude 14:41:09 86° 285° (WNW) 653 3.6 -22.0°
Enters shadow 14:44:28 18° 195° (SSW) 1,584 5.5 -22.7°
